Location: Acheville
(50.3840°N, 2.8827°E)
Time: 15:17:50
(UTC+00:00)

H-2A R/B - Pass Details

Date: 24 October 2021
Orbit: 733 x 837 km, 98.2° (Epoch: 27 November)

Event Time Altitude Azimuth Distance (km) Brightness Sun altitude
Rises 17:35:27 0° 162° (SSE) 3,350 5.2 -9.7°
Reaches altitude 10° 17:37:47 10° 162° (SSE) 2,430 4.5 -10.0°
Maximum altitude 17:43:12 86° 74° (ENE) 846 2.2 -10.9°
Drops below altitude 10° 17:48:42 10° 347° (NNW) 2,463 4.7 -11.8°
Sets 17:51:04 0° 347° (NNW) 3,398 5.5 -12.2°
